Location: Brno
(49.2000°N, 16.6330°E)
Time: 01:57:10
(UTC+02:00)

Iridium 2 - Visible Passes

Search period start: 01 October 2014 00:00
Search period end: 11 October 2014 00:00
Orbit: 531 x 550 km, 85.5° (Epoch: 30 September)

Date Brightness Start Highest point End Pass type
(mag) Time Alt. Az. Time Alt. Az. Time Alt. Az.
01 Oct 7.0 03:18:30 10° NE 03:19:30 11° ENE 03:20:31 10° E visible
01 Oct 3.6 04:52:03 10° N 04:55:58 78° W 04:58:38 20° S visible
02 Oct 7.0 03:11:28 10° NE 03:12:19 11° ENE 03:13:10 10° E visible
02 Oct 3.6 04:44:52 10° N 04:48:48 80° W 04:49:37 54° SSW visible
03 Oct 7.0 03:04:28 10° ENE 03:05:06 10° ENE 03:05:40 10° ENE visible
03 Oct 3.8 04:37:40 10° N 04:41:07 67° NNW 04:41:07 67° NNW visible
04 Oct 4.8 04:30:26 10° N 04:32:53 37° N 04:32:53 37° N visible
05 Oct 5.6 04:23:12 10° N 04:24:48 24° N 04:24:48 24° N visible
06 Oct 6.1 04:15:56 10° N 04:16:51 17° N 04:16:51 17° N visible
07 Oct 6.5 04:08:39 10° N 04:08:58 12° N 04:08:58 12° N visible
